Windom, MN

4:53 PM CDT on July 20, 2017 (GMT -0500)
Windom Municipal

Weather History for KMWM - December, 2012

Change the Weather History Date:

Saturday, December 15, 2012

  Actual Average Record
Temperature  
Mean Temperature 34 °F -  
Max Temperature 41 °F 28 °F 48 °F (1957)
Min Temperature 26 °F 11 °F -19 °F (1989)
Degree Days  
Heating Degree Days 32    
Moisture  
Dew Point 34 °F    
Average Humidity 96    
Maximum Humidity 100    
Minimum Humidity 76    
Precipitation  
Precipitation 0.18 in - - ()
Sea Level Pressure  
Sea Level Pressure 29.54 in    
Wind  
Wind Speed 2 mph (WNW)    
Max Wind Speed 18 mph    
Max Gust Speed 24 mph    
Visibility 4 miles    
Events Fog , Rain , Snow    
Averages and records for this station are not official NWS values.
T = Trace of Precipitation, MM = Missing Value Source: NWS Daily Summary

Daily Weather History Graph

Daily Weather History Graph

Search for Another Location

Airport or City:

Trip Planner

Search our weather history database for the weather conditions in past years. The results will help you decide how hot, cold, wet, or windy it might be!

Date:

Astronomy

Dec. 15, 2012 Rise Set
Actual Time 7:48 AM CST 4:43 PM CST
Civil Twilight 7:15 AM CST 5:16 PM CST
Nautical Twilight 6:38 AM CST 5:52 PM CST
Astronomical Twilight 6:03 AM CST 6:27 PM CST
Moon 9:38 AM CST (12/15) 7:53 PM CST (12/15)
Length of Visible Light 10h 01m
Length of Day
8h 55m
Waxing Crescent, 8% of the Moon is Illuminated
Dec 15
Waxing Crescent
Dec 19
First Quarter
Dec 28
Full
Jan 4
Last Quarter
Jan 11
New

Hourly Weather History & Observations

Time (CST) Temp. Windchill Dew Point Humidity Pressure Visibility Wind Dir Wind Speed Gust Speed Precip Events Conditions
12:13 AM 41.0 °F - 33.8 °F 76% 29.65 in 10.0 mi Calm Calm - N/A   Overcast
12:33 AM 39.2 °F - 33.8 °F 81% 29.63 in 10.0 mi Calm Calm - N/A   Overcast
12:52 AM 39.2 °F - 33.8 °F 81% 29.61 in 10.0 mi Calm Calm - N/A   Overcast
1:13 AM 37.4 °F - 33.8 °F 87% 29.60 in 10.0 mi Calm Calm - N/A   Mostly Cloudy
1:33 AM 39.2 °F 37.0 °F 33.8 °F 81% 29.61 in 10.0 mi ESE 3.5 mph - N/A   Overcast
1:52 AM 37.4 °F - 33.8 °F 87% 29.62 in 10.0 mi Calm Calm - N/A   Scattered Clouds
2:13 AM 37.4 °F - 33.8 °F 87% 29.62 in 10.0 mi Calm Calm - N/A Rain Light Rain
2:32 AM 39.2 °F - 35.6 °F 87% 29.62 in 10.0 mi Calm Calm - N/A Rain Light Rain
2:52 AM 37.4 °F - 35.6 °F 93% 29.61 in 10.0 mi Calm Calm - N/A   Drizzle
3:13 AM 37.4 °F - 35.6 °F 93% 29.60 in 5.0 mi Calm Calm - N/A Rain Rain
3:32 AM 37.4 °F - 35.6 °F 93% 29.59 in 10.0 mi Calm Calm - 0.01 in Rain Light Rain
3:53 AM 37.4 °F - 37.4 °F 100% 29.58 in 10.0 mi Calm Calm - 0.01 in   Light Drizzle
4:13 AM 37.4 °F - 37.4 °F 100% 29.56 in 10.0 mi Calm Calm - N/A Rain Light Rain
4:32 AM 39.2 °F 37.0 °F 37.4 °F 93% 29.56 in 4.0 mi ESE 3.5 mph - 0.03 in Rain Rain
4:53 AM 37.4 °F - 37.4 °F 100% 29.55 in 4.0 mi Calm Calm - 0.09 in Rain Rain
5:12 AM 37.4 °F - 37.4 °F 100% 29.53 in 5.0 mi Calm Calm - 0.02 in Rain Rain
5:32 AM 37.4 °F - 37.4 °F 100% 29.53 in 3.0 mi Calm Calm - 0.03 in Rain Light Rain
5:53 AM 37.4 °F - 35.6 °F 93% 29.52 in 2.5 mi Calm Calm - 0.04 in Rain Light Rain
6:12 AM 37.4 °F - 35.6 °F 93% 29.52 in 2.0 mi Calm Calm - 0.01 in Rain Light Rain
6:32 AM 35.6 °F - 35.6 °F 100% 29.51 in 0.8 mi Calm Calm - 0.01 in Rain Light Rain
6:53 AM 35.6 °F - 35.6 °F 100% 29.51 in 0.2 mi Calm Calm - 0.01 in   Drizzle
7:12 AM 35.6 °F - 35.6 °F 100% 29.50 in 0.2 mi Calm Calm - N/A   Drizzle
7:32 AM 35.6 °F - 35.6 °F 100% 29.50 in 0.2 mi Calm Calm - N/A   Drizzle
7:53 AM 35.6 °F - 35.6 °F 100% 29.50 in 0.2 mi Calm Calm - N/A   Drizzle
8:12 AM 37.4 °F - 37.4 °F 100% 29.50 in 3.0 mi Calm Calm - N/A Rain Rain
8:32 AM 39.2 °F - 37.4 °F 93% 29.50 in 7.0 mi Calm Calm - N/A Rain Light Rain
8:53 AM 39.2 °F - 37.4 °F 93% 29.49 in 10.0 mi Calm Calm - N/A Rain Rain
9:12 AM 39.2 °F - 39.2 °F 100% 29.49 in 10.0 mi Calm Calm - N/A Rain Rain
9:32 AM 39.2 °F - 39.2 °F 100% 29.49 in 10.0 mi Calm Calm - N/A   Drizzle
9:53 AM 39.2 °F - 39.2 °F 100% 29.49 in 10.0 mi Calm Calm - N/A   Light Drizzle
10:12 AM 39.2 °F - 39.2 °F 100% 29.49 in 7.0 mi Calm Calm - N/A Rain Rain
10:32 AM 39.2 °F - 39.2 °F 100% 29.50 in 5.0 mi Calm Calm - N/A Rain Rain
10:53 AM 39.2 °F - 39.2 °F 100% 29.49 in 5.0 mi Calm Calm - N/A   Drizzle
11:12 AM 39.2 °F - 39.2 °F 100% 29.49 in 4.0 mi Calm Calm - N/A   Drizzle
11:32 AM 39.2 °F - 39.2 °F 100% 29.48 in 2.0 mi Calm Calm - N/A   Overcast
11:53 AM 37.4 °F - 37.4 °F 100% 29.49 in 1.0 mi Calm Calm - N/A   Overcast
12:12 PM 37.4 °F - 37.4 °F 100% 29.48 in 0.5 mi Calm Calm - N/A   Light Drizzle
12:53 PM 37.4 °F - 37.4 °F 100% 29.48 in 0.8 mi Calm Calm - N/A   Light Drizzle
1:12 PM 35.6 °F - 35.6 °F 100% 29.47 in 0.8 mi Calm Calm - N/A   Drizzle
1:53 PM 35.6 °F - 35.6 °F 100% 29.46 in 1.0 mi Calm Calm - N/A   Light Drizzle
2:12 PM 35.6 °F - 35.6 °F 100% 29.47 in 1.0 mi Calm Calm - N/A   Light Drizzle
2:33 PM 35.6 °F 29.9 °F 35.6 °F 100% 29.47 in 1.0 mi WNW 6.9 mph - N/A   Light Drizzle
2:53 PM 35.6 °F 32.8 °F 33.8 °F 93% 29.47 in 1.5 mi NW 3.5 mph - N/A   Overcast
3:12 PM 35.6 °F 32.8 °F 33.8 °F 93% 29.48 in 0.8 mi WNW 3.5 mph - N/A   Overcast
3:33 PM 33.8 °F 30.8 °F 33.8 °F 100% 29.50 in 0.5 mi WNW 3.5 mph - N/A Fog Fog
3:53 PM 33.8 °F - 33.8 °F 100% 29.50 in 0.8 mi Calm Calm - N/A   Drizzle
4:12 PM 33.8 °F 28.6 °F 33.8 °F 100% 29.50 in 0.8 mi WNW 5.8 mph - N/A   Light Drizzle
4:33 PM 33.8 °F 28.6 °F 33.8 °F 100% 29.51 in 3.0 mi NW 5.8 mph - N/A   Overcast
4:52 PM 33.8 °F 27.7 °F 33.8 °F 100% 29.52 in 3.0 mi NW 6.9 mph - N/A Snow Light Snow
5:13 PM 33.8 °F 27.0 °F 33.8 °F 100% 29.52 in 2.5 mi NW 8.1 mph - N/A Snow Light Snow
5:52 PM 33.8 °F 27.0 °F 33.8 °F 100% 29.54 in 3.0 mi NW 8.1 mph - N/A Snow Light Snow
6:13 PM 33.8 °F 27.7 °F 32.0 °F 93% 29.55 in 3.0 mi WNW 6.9 mph - N/A Snow Light Snow
6:32 PM 33.8 °F 27.0 °F 32.0 °F 93% 29.56 in 2.0 mi WNW 8.1 mph - N/A Snow Light Snow
6:53 PM 33.8 °F 27.0 °F 32.0 °F 93% 29.57 in 1.2 mi WNW 8.1 mph - N/A Snow Light Snow
7:12 PM 32.0 °F 23.0 °F 32.0 °F 100% 29.58 in 1.2 mi WNW 11.5 mph 16.1 mph 0.01 in Snow Light Snow
7:33 PM 30.2 °F 20.2 °F 30.2 °F 100% 29.58 in 1.2 mi WNW 12.7 mph 18.4 mph 0.02 in Snow Light Snow
7:53 PM 30.2 °F 20.8 °F 30.2 °F 100% 29.58 in 1.5 mi WNW 11.5 mph 18.4 mph 0.02 in Snow Light Snow
8:12 PM 30.2 °F 20.2 °F 30.2 °F 100% 29.58 in 1.2 mi WNW 12.7 mph 19.6 mph 0.01 in Snow Light Snow
8:33 PM 30.2 °F 20.8 °F 28.4 °F 93% 29.58 in 1.8 mi WNW 11.5 mph 19.6 mph 0.01 in Snow Light Snow
8:52 PM 28.4 °F 17.5 °F 28.4 °F 100% 29.59 in 2.0 mi WNW 13.8 mph 20.7 mph 0.01 in Snow Light Snow
9:13 PM 28.4 °F 17.0 °F 28.4 °F 100% 29.59 in 2.0 mi WNW 15.0 mph - N/A Snow Light Snow
9:32 PM 28.4 °F 18.0 °F 28.4 °F 100% 29.59 in 2.0 mi WNW 12.7 mph - N/A Snow Light Snow
9:53 PM 28.4 °F 16.6 °F 28.4 °F 100% 29.59 in 3.0 mi NW 16.1 mph 21.9 mph N/A Snow Light Snow
10:12 PM 28.4 °F 18.0 °F 26.6 °F 93% 29.59 in 3.0 mi WNW 12.7 mph 19.6 mph N/A Snow Light Snow
10:33 PM 28.4 °F 17.5 °F 26.6 °F 93% 29.59 in 3.0 mi WNW 13.8 mph 17.3 mph N/A   Overcast
10:52 PM 28.4 °F 16.6 °F 26.6 °F 93% 29.59 in 3.0 mi WNW 16.1 mph - N/A   Overcast
11:12 PM 26.6 °F 14.7 °F 24.8 °F 93% 29.60 in 4.0 mi WNW 15.0 mph - N/A   Overcast
11:33 PM 26.6 °F 15.7 °F 24.8 °F 93% 29.60 in 5.0 mi NW 12.7 mph 24.2 mph N/A   Overcast
11:52 PM 26.6 °F 13.4 °F 24.8 °F 93% 29.61 in 7.0 mi NW 18.4 mph 24.2 mph N/A   Overcast